AirNav   Advertisement
 
 1138 users online  

2NY9 Kayutah Lake Airport
Alpine, New York, USA

GOING TO ALPINE?


FAA INFORMATION EFFECTIVE 14 SEPTEMBER 2017

Location

FAA Identifier: 2NY9
Lat/Long: 42-22-12.2640N / 076-43-20.8230W
42-22.204400N / 076-43.347050W
42.3700733 / -76.7224508
(estimated)
Elevation: 1385 ft. / 422 m (estimated)
Variation: 11W (1985)
From city: 3 miles N of ALPINE, NY
Time zone: UTC -4 (UTC -5 during Standard Time)
Zip code: 14805

Airport Operations

Airport use: Private use. Permission required prior to landing
Activation date: 05/1974
Control tower: no
ARTCC: NEW YORK CENTER
FSS: BUFFALO FLIGHT SERVICE STATION
Attendance: MAY-OCT 0800-2000
Wind indicator: yes
Segmented circle: no

Airport Communications

WX AWOS-3PT at ITH (14 nm NE): 125.175 (607-257-2390)
WX ASOS at ELM (15 nm SW): PHONE 607-796-0065

Nearby radio navigation aids

VOR radial/distance  VOR name  Freq  Var
ITHr247/13.8ITHACA VOR/DME111.8010W
ULWr051/21.3ELMIRA VOR/DME109.6512W
CFBr306/29.0BINGHAMTON VOR/DME112.2010W

 
NDB name  Hdg/Dist  Freq  Var  ID
ALPINE025/8.124512WALP .- .-.. .--.
PENN YAN150/22.126012WPYA .--. -.-- .-

Airport Services

Airframe service: NONE
Powerplant service: NONE

Runway Information

Runway 8/26

Dimensions: 2400 x 70 ft. / 732 x 21 m
08/26 300' OVERRUN ON EAST END.
Surface: turf
RUNWAY 8  RUNWAY 26
Traffic pattern: leftright
Obstructions: nonetrees, 750 ft. from runway

Runway 4W/22W

Dimensions: 5000 x 150 ft. / 1524 x 46 m
Surface: water
RUNWAY 4W  RUNWAY 22W
Traffic pattern: leftleft

Airport Ownership and Management from official FAA records

Ownership: Privately-owned
Owner: JAMES W. ALLEN
2512 LORI LANE NORTH
WILIMGTON, DE 19810
Phone (302) 478-0310
Manager: LAKE GROVE PARK LLC
2619 COUNTY RT. 6
ALPINE, NY 14805
Phone 607-594-4790

Airport Operational Statistics

Aircraft based on the field: 1
Single engine airplanes: 1
    

Instrument Procedures

There are no published instrument procedures at 2NY9.

Some nearby airports with instrument procedures:

KITH - Ithaca Tompkins Regional Airport (14 nm NE)
KELM - Elmira/Corning Regional Airport (15 nm SW)
KPEO - Penn Yan Airport (22 nm NW)
N03 - Cortland County Airport-Chase Field (26 nm NE)
0G7 - Finger Lakes Regional Airport (31 nm N)
 
Loc | Ops | Rwys | IFR | FBO | Links
Com | Nav | Svcs | Stats | Notes


 
Area around 2NY9 (Kayutah Lake Airport)
 
Road maps at: MapQuest Bing Google
 
Aerial photo
No photo
 
Sectional chart

 
Airport distance calculator
Flying to Kayutah Lake Airport? Find the distance to fly.

From to 2NY9

Sunrise and sunset
Times for 22-Sep-2017
 Local
(UTC-4)
 Zulu
(UTC)
Morning civil twilight06:2710:27
Sunrise06:5510:55
Sunset19:0423:04
Evening civil twilight19:3223:32

Current date and time
Zulu (UTC)  22-Sep-2017 13:12:43
Local (UTC-4)  22-Sep-2017 09:12:43
 
METAR
KITH 
13nm NE 
221256Z 00000KT 1/8SM R32/0600V0800FT FG VV001 16/16 A3016 RMK AO2 SLP211 T01560156
KELM 
15nm SW 
221253Z 23004KT 1/4SM FG VV002 16/16 A3014 RMK AO2 SLP204 T01560156 RVRNO
KPEO 
22nm NW 
221302Z AUTO 00000KT 5SM BR FEW005 16/15 A3016 RMK AO2 T01610150
KN03 
26nm NE 
221255Z AUTO 00000KT M1/4SM FG OVC002 14/14 A3016 RMK AO2
TAF
KITH 
13nm NE 
221125Z 2212/2312 00000KT 1/2SM FG VV001 FM221230 VRB02KT 2SM BR BKN250 FM221400 33005KT P6SM SCT250 TEMPO 2308/2312 2SM BR
KELM 
15nm SW 
221125Z 2212/2312 00000KT 1/2SM FG VV001 TEMPO 2212/2214 2SM BR BKN004 FM221400 02005KT P6SM SCT250 FM230700 00000KT 2SM BR SKC TEMPO 2308/2312 1/4SM FG VV001
NOTAMs
Click for the latest NOTAMs
NOTAMs are issued by the DoD/FAA and will open in a separate window not controlled by AirNav.

 

 
 

Would you like to see your business listed on this page?

 If your business provides an interesting product or service to pilots, flight crews, aircraft, or users of the Kayutah Lake Airport, you should consider listing it here.  To start the listing process, click on the button below
 
Add a business
 

Other Pages about Kayutah Lake Airport

Update a link
 
Copyright © AirNav, LLC. All rights reserved. Privacy Policy  Contact